Location: Apeadero de Los Molinos-Guadarrama
(40.7091°N, 4.0689°W)
Time: 12:49:09
(UTC+00:00)

Cosmos 1151 Rocket - Pass Details

Date: 14 May 2021
Orbit: 591 x 616 km, 82.5° (Epoch: 18 June)

Event Time Altitude Azimuth Distance (km) Brightness Sun altitude
Rises 20:31:18 0° 186° (S) 2,858 6.2 -11.4°
Reaches altitude 10° 20:33:29 10° 187° (S) 1,962 5.3 -11.7°
Maximum altitude 20:37:51 89° 279° (W) 620 3.0 -12.4°
Drops below altitude 10° 20:42:15 10° 8° (N) 1,986 6.1 -13.0°
Sets 20:44:30 0° 8° (N) 2,897 7.0 -13.3°
